Location: State Camp
(41.2367°N, 77.7828°W)
Time: 05:19:52
(UTC-04:00)

Daily predictions for brighter satellites

Satellite Brightness Start Highest point End
(mag) Time Altitude Azimuth Time Altitude Azimuth Time Altitude Azimuth
H-2A R/B 4.4 00:10:18 21° NW 00:10:18 21° NW 00:12:01 10° NNW
ATLAS 3B R/B 4.1 00:06:47 10° WNW 00:11:07 24° W 00:11:07 24° W
Cosmos 2219 Rocket 3.2 00:14:24 43° NW 00:14:24 43° NW 00:18:59 10° NNE
SL-16 R/B 4.1 00:21:37 22° NE 00:21:37 22° NE 00:23:40 10° NE
COSMOS 2428 4.4 00:17:01 26° WNW 00:18:19 28° NW 00:23:13 10° N
CZ-2C R/B 4.0 00:16:22 10° NNE 00:19:21 34° NNE 00:19:21 34° NNE
Terra 4.3 00:24:36 15° WNW 00:24:36 15° WNW 00:26:15 10° NW
NOSS 3-2 (C) 4.2 00:19:46 10° NW 00:26:27 62° W 00:26:27 62° W
Cosmos 2333 Rocket 3.4 00:32:48 38° NNW 00:32:48 38° NNW 00:37:10 10° N
NOSS 3-4 (A) 4.5 00:54:01 40° NW 00:54:17 40° NW 01:00:24 10° NNE
NOSS 3-4 (C) 4.5 00:54:09 40° NW 00:54:23 41° NW 01:00:31 10° NNE
Cosmos 2237 Rocket 3.6 00:57:08 34° NNW 00:57:08 34° NNW 01:01:06 10° N
Mayak 1.7 00:51:42 10° NNE 00:52:18 14° NNE 00:52:18 14° NNE
Cosmos 2369 Rocket 4.2 00:55:34 10° N 00:59:46 20° NE 00:59:57 20° NE
CENTAUR R/B 3.1 00:57:28 10° NW 01:04:37 75° NW 01:04:37 75° NW
USA 215 3.6 01:13:10 60° N 01:13:10 60° N 01:18:56 10° NW
ATLAS CENTAUR R/B 4.0 01:28:51 10° NW 01:35:02 38° NNW 01:35:02 38° NNW
COSMOS 2455 4.4 01:39:33 10° NW 01:42:18 27° NW 01:42:18 27° NW
SL-16 R/B 3.8 02:03:29 27° NW 02:03:29 27° NW 02:07:25 10° N
Cosmos 1943 Rocket 3.0 02:27:00 10° NNW 02:31:10 46° NNE 02:31:10 46° NNE
SL-16 R/B 3.8 02:30:31 27° E 02:32:36 34° ENE 02:38:06 10° N
Resurs 1-4 Rocket 3.8 02:34:24 10° NE 02:38:21 25° E 02:38:21 25° E
Cosmos 2369 Rocket 3.5 02:38:39 10° NNW 02:41:42 32° NW 02:41:42 32° NW
CZ-3A R/B 3.6 02:36:40 10° NW 02:47:28 71° NE 02:52:45 10° ESE
CZ-2D R/B 3.5 02:44:22 10° NE 02:48:55 31° E 02:48:55 31° E
Cosmos 1943 3.9 02:56:08 48° NNW 02:56:08 48° NNW 03:00:43 10° NNE
Cosmos 841 Rocket 4.1 03:01:51 54° NNE 03:01:51 54° NNE 03:05:50 10° NNE
ARIANE 5 R/B 3.4 03:07:05 10° NNE 03:12:03 42° E 03:12:11 42° ESE
Cosmos 1000 Rocket 4.4 03:06:45 10° N 03:12:56 85° WNW 03:12:56 85° WNW
SL-08 R/B 4.4 03:15:58 38° NNW 03:15:58 38° NNW 03:18:57 10° NNW
BREEZE-M DEB (TANK) 3.9 03:13:14 52° WNW 03:14:26 63° NNW 03:31:59 10° ENE
UNK 4.4 03:19:09 53° NNE 03:19:09 53° NNE 03:22:51 10° N
Cosmos 304 Rocket 4.4 03:20:35 52° N 03:20:35 52° N 03:24:16 10° NNE
Cosmos 2239 Rocket 4.3 03:19:57 82° SW 03:20:11 85° W 03:26:33 10° N
ADEOS Rocket 3.0 03:16:51 10° N 03:21:45 57° NW 03:21:45 57° NW
Cosmos 1400 Rocket 4.4 03:20:27 10° N 03:23:32 33° ENE 03:23:32 33° ENE
Cosmos 1726 4.3 03:29:16 21° E 03:29:16 21° E 03:31:59 10° NE
Cosmos 1535 Rocket 4.4 03:28:55 74° SW 03:29:25 79° W 03:35:52 10° N
IRS-1D 3.4 03:31:16 10° NNE 03:36:27 81° ESE 03:36:35 80° SE
Cosmos 2221 2.9 03:41:00 62° NNE 03:41:00 62° NNE 03:44:41 10° N
Cosmos 1805 Rocket 4.1 03:37:34 10° N 03:41:56 53° E 03:42:20 51° E
ADEOS 3.6 03:39:22 10° NNE 03:44:35 72° ESE 03:45:16 63° SSE
Spot 4 Rocket 3.9 03:39:46 10° NNE 03:44:57 84° WNW 03:45:08 81° WSW
NPP 4.3 03:42:37 10° N 03:47:30 40° WNW 03:47:30 40° WNW
COSMOS 2406 3.2 03:47:04 59° SSE 03:48:01 72° ESE 03:53:42 10° NNE
Cosmos 2285 Rocket 4.2 03:46:52 43° SSE 03:48:51 64° ESE 03:55:11 10° NNE
Cosmos 372 Rocket 3.8 03:45:25 10° NNW 03:50:36 84° WSW 03:50:59 76° S
Cosmos 2098 Rocket 3.8 03:52:13 57° W 03:52:36 59° W 03:57:43 10° N
IRS-1C 4.4 03:48:34 10° N 03:53:42 48° WNW 03:53:50 48° WNW
CBERS 1 LM4 rocket 4.4 03:48:53 10° N 03:54:03 78° WNW 03:54:37 69° SW
Cosmos 540 Rocket 3.6 03:58:15 53° WNW 03:58:24 53° WNW 04:03:26 10° N
Okean O Rocket 4.4 03:57:03 10° ENE 03:58:43 12° E 04:00:23 10° ESE
Meteor 2-1 Rocket 4.4 03:58:39 50° W 03:58:57 51° WNW 04:04:20 10° N
Cosmos 1908 4.1 04:03:42 40° NNW 04:03:42 40° NNW 04:06:28 10° N
Cosmos 783 Rocket 4.4 04:05:05 60° SSW 04:06:04 83° WNW 04:11:22 10° NNE
MOS 1 Rocket 3.2 04:03:06 10° N 04:07:19 59° WNW 04:07:19 59° WNW
Cosmos 1300 3.2 04:12:33 46° SE 04:13:15 55° E 04:17:00 10° NNE
Cosmos 1125 Rocket 4.0 04:09:54 10° NNW 04:14:14 41° W 04:14:14 41° W
Cosmos 1943 Rocket 4.2 04:11:55 10° WNW 04:12:38 12° WNW 04:12:38 12° WNW
SL-16 R/B 2.9 04:15:37 39° WSW 04:16:05 39° W 04:21:53 10° NNW
Sich 1 3.0 04:11:56 10° N 04:16:20 84° E 04:17:46 42° SSE
BREEZE M DEB (TANK) 4.0 04:17:34 22° E 04:17:34 22° E 04:18:41 10° E
Resurs 1-4 Rocket 2.6 04:13:45 10° N 04:18:38 40° WNW 04:19:26 38° W
Cosmos 2123 Rocket 4.3 04:13:36 10° NNW 04:19:31 45° W 04:20:53 39° WSW
CZ-2D R/B 3.2 04:16:45 10° N 04:20:46 83° WNW 04:21:16 67° SSW
Cosmos 1656 Rocket 4.1 04:18:39 10° NW 04:23:54 39° WSW 04:24:04 39° WSW
Cosmos 1315 Rocket 2.6 04:23:32 10° NNW 04:27:35 78° W 04:28:34 49° S
CZ-2D R/B 2.9 04:24:20 10° N 04:29:08 34° WNW 04:30:15 31° W
OPS 8737 4.4 04:29:28 65° W 04:29:40 67° NW 04:33:00 10° NNE
Cosmos 1459 Rocket 4.1 04:25:34 16° S 04:30:33 71° E 04:36:36 10° NNE
Cosmos 1470 Rocket 4.4 04:28:07 10° N 04:32:20 49° E 04:36:31 10° SSE
Cosmos 1538 Rocket 4.1 04:30:39 28° S 04:33:32 78° ESE 04:38:55 10° NNE
Cosmos 2228 Rocket 3.5 04:31:12 22° S 04:34:01 63° E 04:38:26 10° NNE
USA 229 DEB 3.9 04:30:14 10° NW 04:37:12 54° WSW 04:44:15 10° SSE
USA 229 3.9 04:30:21 10° NW 04:37:18 54° WSW 04:44:22 10° SSE
Cosmos 2082 Rocket 3.8 04:35:33 10° SSE 04:40:24 31° ESE 04:45:18 10° NE
Cosmos 1515 Rocket 4.0 04:37:54 17° S 04:41:07 62° E 04:45:29 10° NNE
NOSS 3-1 (A) 4.4 04:34:49 10° NNW 04:42:26 71° NE 04:50:52 10° SE
PSLV R/B 3.0 04:42:54 62° W 04:43:24 87° S 04:46:39 10° E
Cosmos 1633 Rocket 3.1 04:40:26 10° NNW 04:44:44 57° W 04:46:49 28° SSW
USA 161 2.8 04:47:07 21° N 04:47:07 21° N 04:47:58 10° N
Tiangong 2 3.0 04:46:42 19° SSE 04:47:11 20° SSE 04:49:37 10° E
Cosmos 292 Rocket 4.2 04:46:24 32° WSW 04:48:06 46° WNW 04:52:45 10° N
Cosmos 2061 Rocket 4.1 04:43:46 11° S 04:49:54 88° E 04:56:22 10° N
ARIANE 5 R/B 3.8 04:46:42 10° NNW 04:50:54 25° WNW 04:52:31 22° W
Lacrosse 5 3.2 04:46:11 10° NW 04:50:59 41° NE 04:55:47 10° ESE
CZ-4B R/B 3.6 04:52:08 10° NNE 04:56:34 61° E 05:01:02 10° S
CZ-4B R/B 4.2 04:52:28 10° NNE 04:57:43 44° E 05:02:49 10° S
UNKNOWN OBJECT B 4.1 04:55:37 10° NNW 04:59:01 26° WNW 05:00:00 24° W
Cosmos 1680 Rocket 4.5 04:56:30 10° S 05:01:31 47° ESE 05:06:36 10° NNE
Cosmos 1726 3.5 05:03:54 21° W 05:04:20 22° WNW 05:07:16 10° NNW
Cosmos 2369 3.9 05:01:46 10° NNW 05:07:27 77° ENE 05:13:05 10° SSE
Cosmos 1328 Rocket 3.9 05:05:17 22° SW 05:07:43 46° WNW 05:11:54 10° N
SL-27 R/B 3.7 05:08:12 21° W 05:08:58 23° WNW 05:11:46 10° N
ADEOS II 2.0 05:04:14 10° N 05:09:30 78° WNW 05:14:44 10° SSW
Cosmos 2016 Rocket 3.9 05:03:49 10° S 05:09:57 81° W 05:16:05 10° N
Cosmos 1892 2.7 05:06:48 10° N 05:10:38 82° E 05:14:28 10° S
USA 234 4.4 05:04:57 10° ENE 05:10:55 36° SE 05:16:50 10° SSW
Meteor 1-27 4.3 05:05:37 10° S 05:11:18 87° E 05:16:56 10° N
NOSS 3-1 (C) 4.1 05:04:33 10° NW 05:12:09 66° WSW 05:20:29 10° SSE
Landsat 4 4.5 05:08:51 10° SSE 05:12:30 54° ENE 05:16:11 10° N
MOS 1-B 4.4 05:07:14 10° N 05:13:00 65° WNW 05:18:38 10° SSW
Hubble Space Telescope 2.9 05:12:56 12° SSW 05:14:15 13° S 05:16:11 10° SE
Shenzhou-11 Module 2.7 05:14:51 23° SW 05:16:24 42° SSE 05:19:20 10° E
In-Cosmos 22 Rocket 4.3 05:11:47 10° NNW 05:16:56 47° W 05:22:00 10° SSW
PSLV R/B 3.5 05:13:04 10° NNE 05:17:27 87° W 05:21:45 10° SSW
BREEZE-M DEB (TANK) 3.4 05:20:14 16° SSW 05:20:14 16° SSW 05:21:54 10° S
Cosmos 1656 3.9 05:16:21 10° NNW 05:22:06 78° ENE 05:27:47 10° SSE
Cosmos 1725 Rocket 4.0 05:16:25 10° S 05:22:35 89° E 05:28:48 10° N
Cosmos 1802 Rocket 4.2 05:18:05 10° SSW 05:24:05 53° WNW 05:30:14 10° N
Cosmos 1825 4.4 05:22:31 10° NNE 05:25:55 30° ENE 05:29:18 10° SE
Cosmos 1933 Rocket 3.9 05:22:15 10° NNW 05:26:31 45° W 05:30:45 10° SSW
Abrixas 2.2 05:29:38 10° WNW 05:32:12 50° SSW 05:34:44 10° SE
COSMOS 2487 2.4 05:28:57 10° SSW 05:32:29 80° WNW 05:36:02 10° NNE
Okean O Rocket 1.7 05:31:07 10° N 05:35:30 62° WNW 05:39:50 10° SSW
Cosmos 1833 Rocket 2.7 05:33:41 10° SSW 05:39:20 86° WNW 05:45:01 10° NNE
Cosmos 1408 3.6 05:38:49 10° N 05:42:23 50° E 05:45:53 10° SSE
Cosmos 1151 Rocket 3.8 05:38:42 10° SW 05:42:36 33° WNW 05:46:30 10° N
Tsikada Rocket 4.0 05:37:31 10° NNW 05:43:48 71° W 05:50:08 10° S
Cosmos 1707 Rocket 4.1 05:41:02 10° S 05:45:25 64° E 05:49:46 10° NNE
Cosmos 1980 Rocket 3.0 05:48:06 10° NNW 05:53:39 58° ENE 05:59:11 10° SE
Cosmos 2278 4.1 05:51:50 10° NW 05:57:08 42° WSW 06:02:23 10° S
ASTEX 1 4.4 05:55:38 10° NNE 06:00:25 51° E 06:05:10 10° S
